AirNav   Duncan Aviation - Near you to keep you flying
 
 392 users online  

L04 Holtville Airport
Holtville, California, USA

GOING TO HOLTVILLE?


FAA INFORMATION EFFECTIVE 16 JUNE 2022

Location

FAA Identifier: L04
Lat/Long: 32-50-41.8000N 115-16-06.6000W
32-50.696667N 115-16.110000W
32.8449444,-115.2685000
(estimated)
Elevation: 59 ft. / 18.0 m (surveyed)
Variation: 13E (1985)
From city: 5 miles NE of HOLTVILLE, CA
Time zone: UTC -7 (UTC -8 during Standard Time)
Zip code: 92250

Airport Operations

Airport use: CLOSED INDEFINITELY
Activation date: 02/1944
Control tower: no
ARTCC: LOS ANGELES CENTER
FSS: SAN DIEGO FLIGHT SERVICE STATION
NOTAMs facility: SAN (NOTAM-D service available)
Attendance: UNATNDD
Pattern altitude: 859 ft. MSL
Wind indicator: no
Segmented circle: no

Airport Communications

CTAF/UNICOM: 123.0
WX ASOS at IPL (16 nm W): 132.175 (760-355-2851)

Airport Services

Airframe service: NONE
Powerplant service: NONE
Bottled oxygen: NONE
Bulk oxygen: NONE

Runway Information

Runway 8/26

Dimensions: 6000 x 150 ft. / 1829 x 46 m
Surface: concrete/L
1-2 FT HOLES IN PAVEMENT, BUCKLED SECTION SLABS UP TO 5 FT.
Weight bearing capacity: 
Single wheel: 30.0, LIMITED BY AMGR TO 20000 LBS; SINGLE WHEEL GEAR.
Double wheel: 50.0, LIMITED BY AMGR TO 40000 LBS; DUAL TANDEM WHEEL GEAR.
Operational restrictions: CLSD INDEFLY.
RUNWAY 8  RUNWAY 26
Latitude: 32-50.701833N32-50.692000N
Longitude: 115-16.696167W115-15.523833W
Traffic pattern: leftleft
Runway end identifier lights: no

Airport Ownership and Management from official FAA records

Ownership: Publicly-owned
Owner: COUNTY OF IMPERIAL
940 W. MAIN ST
EL CENTRO, CA 92243
Phone (442) 265-1001
Manager: JENELL GUERRERO
1099 AIRPORT RD
IMPERIAL, CA 92251
Phone 442-265-3221
ARPT MANAGERS OFFICE AT IMPERIAL CO. ARPT.

Additional Remarks

BE ALERT FREQUENT MILITARY TRAINING ACTIVITY DURING DALGT HRS AND DARK; INCLUDES TACTICAL ACFT; HELICOPTERS AND PARACHUTING; CHECK LOCAL NOTAMS CALL 619-337-7792.
FOR CD CTC LOS ANGELES ARTCC AT 661-575-2079.
ARPT CLSD TO CIVILIAN USE.
(ARPT STATUS) ARPT CLSD INDEFLY.

Instrument Procedures

There are no published instrument procedures at L04.

Some nearby airports with instrument procedures:

KBWC - Brawley Municipal Airport (15 nm NW)
KIPL - Imperial County Airport (16 nm W)
KNJK - El Centro NAF Airport (Vraciu Field) (20 nm W)
KCLR - Cliff Hatfield Memorial Airport (21 nm NW)
KNYL - Yuma Marine Corps Air Station/Yuma International Airport (35 nm E)
 
Loc | Ops | Rwys | IFR | FBO | Links
Com | Nav | Svcs | Stats | Notes
Area around L04 (Holtville Airport)
 
Road maps at: MapQuest Bing Google
 
Aerial photo
No photo
 
Sectional chart

 
Airport distance calculator
Flying to Holtville Airport? Find the distance to fly.

From to L04

Sunrise and sunset
Times for 02-Jul-2022
 Local
(UTC-7)
 Zulu
(UTC)
Morning civil twilight05:0912:09
Sunrise05:3812:38
Sunset19:5202:52
Evening civil twilight20:2103:21

Current date and time
Zulu (UTC)  02-Jul-2022 09:48:13
Local (UTC-7)  02-Jul-2022 02:48:13
 
METAR
MMML 
13nm S 
020740Z 31006KT 10SM SKC 30/01 A2977
KIPL 
16nm W 
020853Z AUTO 22007KT 10SM CLR 29/03 A2976 RMK AO2 SLP077 T02940033 50002
KNJK 
20nm W 
020856Z AUTO 24011KT 10SM CLR 32/02 A2977 RMK AO2 PK WND 26026/0800 SLP095 T03170017 58002 $
TAF
MMML 
13nm S 
011621Z 0118/0218 20012KT P6SM SCT250 FM020600 12005KT P6SM SKC FM021700 22008KT P6SM SCT040
KIPL 
16nm W 
020521Z 0206/0306 25015G25KT P6SM SKC FM020900 27008KT P6SM SKC FM021700 17005KT P6SM SKC FM030000 26015G25KT P6SM SKC
NOTAMs
Click for the latest NOTAMs
NOTAMs are issued by the DoD/FAA and will open in a separate window not controlled by AirNav.

 

 
 

Would you like to see your business listed on this page?

 If your business provides an interesting product or service to pilots, flight crews, aircraft, or users of the Holtville Airport, you should consider listing it here.  To start the listing process, click on the button below
 
Add a business
 

Other Pages about Holtville Airport

Update a link
 
Copyright © AirNav, LLC. All rights reserved. Privacy Policy  Contact